LKMT Weather Reports


Display with metric or nautical units.
time (UTC)temp
F
wind
direction
speed
MPH
gust
MPH
rain 1hr
in
rain 24hr
in
rain mn
in
humidity
%
barometer
mb
20260905103231 70 230 16.0 0.0 0.00 0.00 0.00 52 1018.0
20260905102838 68 240 18.0 0.0 0.00 0.00 0.00 60 1018.0
20260905102637 68 240 18.0 0.0 0.00 0.00 0.00 60
20260905102343 68 240 18.0 0.0 0.00 0.00 0.00 60 1018.0
20260905101938 68 240 18.0 0.0 0.00 0.00 0.00 60 1018.0
20260905101438 68 240 18.0 0.0 0.00 0.00 0.00 60 1018.0
20260905100838 68 240 18.0 0.0 0.00 0.00 0.00 60 1018.0
20260905100344 68 240 18.0 0.0 0.00 0.00 0.00 60 1018.0
20260905095238 64 250 16.0 0.0 0.00 0.00 0.00 67 1018.0
20260905094838 64 250 16.0 0.0 0.00 0.00 0.00 67 1018.0
20260905094238 64 250 16.0 0.0 0.00 0.00 0.00 67 1018.0
20260905093739 64 250 16.0 0.0 0.00 0.00 0.00 67 1018.0
20260905092438 64 250 16.0 0.0 0.00 0.00 0.00 72 1018.0
20260905092242 64 250 16.0 0.0 0.00 0.00 0.00 72
20260905091951 64 250 16.0 0.0 0.00 0.00 0.00 72 1018.0
20260905090839 64 250 16.0 0.0 0.00 0.00 0.00 72 1018.0
20260905090236 64 250 16.0 0.0 0.00 0.00 0.00 72 1018.0
20260905084238 63 240 16.0 0.0 0.00 0.00 0.00 77 1018.0
20260905083231 63 240 16.0 0.0 0.00 0.00 0.00 77 1018.0
20260905082235 63 240 12.0 0.0 0.00 0.00 0.00 77
20260905080234 63 230 12.0 0.0 0.00 0.00 0.00 77 1018.0
20260905073230 61 230 9.0 0.0 0.00 0.00 0.00 87 1018.0
20260905072535 61 0 5.0 0.0 0.00 0.00 0.00 87
20260905070232 61 270 5.0 0.0 0.00 0.00 0.00 82 1017.0
20260905063231 61 250 10.0 0.0 0.00 0.00 0.00 82 1017.0
20260905062235 63 220 12.0 0.0 0.00 0.00 0.00 77
20260905060237 61 220 12.0 0.0 0.00 0.00 0.00 82 1017.0
20260905053223 61 220 12.0 0.0 0.00 0.00 0.00 87 1017.0
20260905052231 64 220 12.0 0.0 0.00 0.00 0.00 72
20260905050234 63 220 10.0 0.0 0.00 0.00 0.00 82 1016.0
20260905043224 63 220 9.0 0.0 0.00 0.00 0.00 82 1015.0
20260905042636 64 250 7.0 0.0 0.00 0.00 0.00 72
20260905042404 63 240 10.0 0.0 0.00 0.00 0.00 82 1016.0
20260905040237 64 260 8.0 0.0 0.00 0.00 0.00 77 1015.0
20260905033224 66 0 2.0 0.0 0.00 0.00 0.00 63 1015.0
20260905032235 68 0 2.0 0.0 0.00 0.00 0.00 60
20260905030234 68 120 5.0 0.0 0.00 0.00 0.00 60 1014.0
20260905023224 66 120 5.0 0.0 0.00 0.00 0.00 63 1014.0
20260905022233 68 110 7.0 0.0 0.00 0.00 0.00 60
20260905020233 66 110 6.0 0.0 0.00 0.00 0.00 63 1014.0
20260905013223 66 90 7.0 0.0 0.00 0.00 0.00 68 1014.0
20260905012550 68 80 7.0 0.0 0.00 0.00 0.00 64
20260905010233 66 80 6.0 0.0 0.00 0.00 0.00 68 1014.0
20260905003224 66 70 7.0 0.0 0.00 0.00 0.00 68 1014.0
20260905002247 68 30 9.0 0.0 0.00 0.00 0.00 64
20260905000233 66 40 10.0 0.0 0.00 0.00 0.00 68 1013.0
20260904233224 68 10 14.0 0.0 0.00 0.00 0.00 60 1012.0
20260904232319 70 360 14.0 0.0 0.00 0.00 0.00 60
20260904230234 70 360 14.0 0.0 0.00 0.00 0.00 60 1012.0
20260904223224 72 230 13.0 0.0 0.00 0.00 0.00 53 1011.0
20260904222649 75 230 14.0 0.0 0.00 0.00 0.00 47
20260904220233 72 230 13.0 0.0 0.00 0.00 0.00 56 1011.0
20260904213224 73 220 12.0 0.0 0.00 0.00 0.00 49 1010.0
20260904212233 75 220 12.0 0.0 0.00 0.00 0.00 47
20260904210233 75 220 13.0 0.0 0.00 0.00 0.00 47 1010.0
20260904203223 75 190 8.0 0.0 0.00 0.00 0.00 47 1011.0
20260904202231 77 180 9.0 0.0 0.00 0.00 0.00 47
20260904200236 75 170 7.0 0.0 0.00 0.00 0.00 50 1011.0
20260904193224 77 190 6.0 0.0 0.00 0.00 0.00 44 1011.0
20260904192531 79 210 12.0 0.0 0.00 0.00 0.00 41
20260904190236 79 220 12.0 0.0 0.00 0.00 0.00 44 1011.0
20260904183230 79 210 15.0 0.0 0.00 0.00 0.00 41 1011.0
20260904182249 81 210 18.0 0.0 0.00 0.00 0.00 39
20260904180234 81 210 17.0 0.0 0.00 0.00 0.00 39 1010.0
20260904173231 81 210 18.0 0.0 0.00 0.00 0.00 39 1010.0
20260904172250 82 220 18.0 0.0 0.00 0.00 0.00 39
20260904170234 81 220 16.0 0.0 0.00 0.00 0.00 42 1010.0
20260904163231 82 220 17.0 0.0 0.00 0.00 0.00 42 1011.0
20260904162535 82 230 18.0 0.0 0.00 0.00 0.00 39
20260904160234 82 230 18.0 0.0 0.00 0.00 0.00 39 1011.0
20260904153231 82 220 17.0 0.0 0.00 0.00 0.00 42 1012.0
20260904152309 82 220 18.0 0.0 0.00 0.00 0.00 42
20260904150233 81 220 17.0 0.0 0.00 0.00 0.00 44 1012.0
20260904143231 81 220 20.0 0.0 0.00 0.00 0.00 42 1012.0
20260904142247 81 220 20.0 0.0 0.00 0.00 0.00 42
20260904140234 81 220 20.0 0.0 0.00 0.00 0.00 44 1013.0
20260904133230 79 230 20.0 0.0 0.00 0.00 0.00 47 1013.0
20260904132525 81 230 20.0 0.0 0.00 0.00 0.00 44
20260904130241 81 240 20.0 0.0 0.00 0.00 0.00 44 1014.0
20260904123231 79 230 15.0 0.0 0.00 0.00 0.00 47 1014.0
20260904122235 79 230 16.0 0.0 0.00 0.00 0.00 47
20260904120235 79 220 17.0 0.0 0.00 0.00 0.00 47 1015.0
20260904113231 77 210 18.0 0.0 0.00 0.00 0.00 50 1015.0
20260904112236 75 210 18.0 0.0 0.00 0.00 0.00 53
20260904110233 75 220 18.0 0.0 0.00 0.00 0.00 53 1016.0